Location: Colonia Mina de C?rbuni
(46.1667°N, 22.7167°E)
Time: 17:59:46
(UTC+00:00)

Cosmos 1709 Rocket - Pass Details

Date: 04 February 2023
Orbit: 948 x 1001 km, 82.9° (Epoch: 30 March)

Event Time Altitude Azimuth Distance (km) Brightness Sun altitude
Rises 18:12:49 0° 349° (N) 3,655 7.2 -27.0°
Reaches altitude 10° 18:15:20 10° 348° (NNW) 2,698 6.5 -27.5°
Maximum altitude 18:21:28 75° 265° (W) 987 4.0 -28.5°
Enters shadow 18:26:27 16° 182° (S) 2,265 5.8 -29.4°
